When you browse on this site, cookies collect data to enhance your experience and personalize the content and advertising you see.
Visit our Privacy Policy to learn more. By continuing to use the site, you agree to this use of cookies and data.
  • In Sweden
  • List of Countries
  • For 7 days
  • Water Temperature
  • Weather Map
  • Weather Widgets
  • user-avatar
    Login

    Hourly Weather Pretoria

    Today, 19 August, Monday

    Time Temperature Precipitation Wind Pressure Humidity
    00:00 +15°C° 0 mm 2 mps 659 mmHg 37%
    01:00 +14°C° 0 mm 2 mps 659 mmHg 42%
    02:00 +14°C° 0 mm 2 mps 659 mmHg 50%
    03:00 +13°C° 0 mm 2 mps 659 mmHg 52%
    04:00 +13°C° 0 mm 2 mps 659 mmHg 54%
    05:00 +13°C° 0 mm 2 mps 659 mmHg 57%
    06:00 +14°C° 0 mm 2 mps 659 mmHg 52%
    07:00 +15°C° 0 mm 2 mps 660 mmHg 48%
    08:00 +16°C° 0 mm 2 mps 661 mmHg 42%
    09:00 +19°C° 0 mm 3 mps 661 mmHg 36%
    10:00 +21°C° 0 mm 3 mps 661 mmHg 30%
    11:00 +24°C° 0 mm 3 mps 661 mmHg 24%
    12:00 +25°C° 0 mm 3 mps 661 mmHg 21%
    13:00 +26°C° 0 mm 3 mps 661 mmHg 18%
    14:00 +27°C° 0 mm 3 mps 661 mmHg 16%
    15:00 +27°C° 0 mm 3 mps 660 mmHg 16%
    16:00 +27°C° 0 mm 3 mps 660 mmHg 16%
    17:00 +27°C° 0 mm 3 mps 660 mmHg 15%
    18:00 +25°C° 0 mm 2 mps 660 mmHg 18%
    19:00 +21°C° 0 mm 2 mps 659 mmHg 20%
    20:00 +19°C° 0 mm 2 mps 659 mmHg 23%
    21:00 +18°C° 0 mm 2 mps 659 mmHg 24%
    22:00 +19°C° 0 mm 1 mps 659 mmHg 24%
    23:00 +18°C° 0 mm 1 mps 659 mmHg 25%

    Tomorrow, 20 August, Tuesday

    Time Temperature Precipitation Wind Pressure Humidity
    00:00 +17°C° 0 mm 2 mps 659 mmHg 26%
    01:00 +16°C° 0 mm 2 mps 659 mmHg 27%
    02:00 +16°C° 0 mm 2 mps 659 mmHg 27%
    03:00 +14°C° 0 mm 3 mps 659 mmHg 28%
    04:00 +13°C° 0 mm 3 mps 659 mmHg 28%
    05:00 +13°C° 0 mm 4 mps 659 mmHg 29%
    06:00 +13°C° 0 mm 4 mps 659 mmHg 30%
    07:00 +14°C° 0 mm 4 mps 660 mmHg 31%
    08:00 +14°C° 0 mm 4 mps 661 mmHg 33%
    09:00 +18°C° 0 mm 3 mps 661 mmHg 30%
    10:00 +20°C° 0 mm 3 mps 662 mmHg 27%
    11:00 +22°C° 0 mm 3 mps 662 mmHg 24%
    12:00 +24°C° 0 mm 2 mps 662 mmHg 20%
    13:00 +25°C° 0 mm 2 mps 661 mmHg 16%
    14:00 +26°C° 0 mm 1 mps 661 mmHg 12%
    15:00 +26°C° 0 mm 1 mps 661 mmHg 11%
    16:00 +26°C° 0 mm 1 mps 661 mmHg 10%
    17:00 +26°C° 0 mm 1 mps 661 mmHg 9%
    18:00 +23°C° 0 mm 2 mps 661 mmHg 17%
    19:00 +20°C° 0 mm 3 mps 661 mmHg 25%
    20:00 +17°C° 0 mm 4 mps 661 mmHg 34%
    21:00 +15°C° 0 mm 4 mps 661 mmHg 44%
    22:00 +14°C° 0 mm 5 mps 662 mmHg 54%
    23:00 +13°C° 0 mm 5 mps 662 mmHg 64%

    Day after tomorrow, 21 August, Wednesday

    Time Temperature Precipitation Wind Pressure Humidity
    00:00 +12°C° 0 mm 4 mps 662 mmHg 68%
    01:00 +11°C° 0 mm 4 mps 662 mmHg 72%
    02:00 +10°C° 0 mm 3 mps 662 mmHg 76%
    03:00 +10°C° 0 mm 3 mps 662 mmHg 79%
    04:00 +9°C° 0 mm 2 mps 662 mmHg 81%
    05:00 +9°C° 0 mm 2 mps 661 mmHg 84%
    06:00 +10°C° 0 mm 2 mps 662 mmHg 81%
    07:00 +10°C° 0 mm 2 mps 663 mmHg 78%
    08:00 +12°C° 0 mm 2 mps 663 mmHg 76%
    09:00 +14°C° 0 mm 2 mps 663 mmHg 66%
    10:00 +16°C° 0 mm 2 mps 664 mmHg 57%
    11:00 +19°C° 0 mm 2 mps 664 mmHg 48%
    12:00 +21°C° 0 mm 1 mps 663 mmHg 42%
    13:00 +22°C° 0 mm 1 mps 663 mmHg 36%
    14:00 +24°C° 0 mm 1 mps 662 mmHg 30%
    15:00 +24°C° 0 mm 1 mps 662 mmHg 29%
    16:00 +24°C° 0 mm 1 mps 662 mmHg 28%
    17:00 +24°C° 0 mm 1 mps 662 mmHg 27%
    18:00 +22°C° 0 mm 1 mps 661 mmHg 31%
    19:00 +20°C° 0 mm 1 mps 661 mmHg 35%
    20:00 +18°C° 0 mm 1 mps 661 mmHg 39%
    21:00 +16°C° 0 mm 2 mps 661 mmHg 42%
    22:00 +14°C° 0 mm 3 mps 661 mmHg 44%
    23:00 +14°C° 0 mm 3 mps 662 mmHg 47%

    22 August, Thursday

    Time Temperature Precipitation Wind Pressure Humidity
    00:00 +13°C° 0 mm 3 mps 661 mmHg 51%
    01:00 +12°C° 0 mm 3 mps 661 mmHg 55%
    02:00 +12°C° 0 mm 2 mps 661 mmHg 60%
    03:00 +10°C° 0 mm 2 mps 661 mmHg 62%
    04:00 +10°C° 0 mm 1 mps 661 mmHg 65%
    05:00 +9°C° 0 mm 0 mps 660 mmHg 68%
    06:00 +11°C° 0 mm 1 mps 661 mmHg 61%
    07:00 +13°C° 0 mm 1 mps 662 mmHg 55%
    08:00 +14°C° 0 mm 2 mps 662 mmHg 49%
    09:00 +17°C° 0 mm 2 mps 662 mmHg 42%
    10:00 +19°C° 0 mm 2 mps 662 mmHg 36%
    11:00 +21°C° 0 mm 3 mps 663 mmHg 29%
    12:00 +24°C° 0 mm 3 mps 662 mmHg 24%
    13:00 +25°C° 0 mm 3 mps 662 mmHg 19%
    14:00 +27°C° 0 mm 3 mps 661 mmHg 14%
    15:00 +27°C° 0 mm 3 mps 661 mmHg 14%
    16:00 +27°C° 0 mm 3 mps 661 mmHg 13%
    17:00 +26°C° 0 mm 3 mps 660 mmHg 13%
    18:00 +24°C° 0 mm 3 mps 660 mmHg 14%
    19:00 +21°C° 0 mm 3 mps 660 mmHg 16%
    20:00 +19°C° 0 mm 3 mps 660 mmHg 17%
    21:00 +19°C° 0 mm 3 mps 660 mmHg 18%
    22:00 +18°C° 0 mm 3 mps 660 mmHg 19%
    23:00 +17°C° 0 mm 3 mps 660 mmHg 20%

    23 August, Friday

    Time Temperature Precipitation Wind Pressure Humidity
    00:00 +16°C° 0 mm 2 mps 660 mmHg 23%
    01:00 +15°C° 0 mm 2 mps 659 mmHg 26%
    02:00 +13°C° 0 mm 2 mps 659 mmHg 30%
    03:00 +13°C° 0 mm 2 mps 659 mmHg 33%
    04:00 +12°C° 0 mm 2 mps 659 mmHg 37%
    05:00 +12°C° 0 mm 2 mps 659 mmHg 40%
    06:00 +13°C° 0 mm 2 mps 660 mmHg 38%
    07:00 +14°C° 0 mm 2 mps 660 mmHg 35%
    08:00 +16°C° 0 mm 2 mps 661 mmHg 32%
    09:00 +18°C° 0 mm 2 mps 661 mmHg 28%
    10:00 +21°C° 0 mm 2 mps 662 mmHg 24%
    11:00 +25°C° 0 mm 2 mps 662 mmHg 19%
    12:00 +26°C° 0 mm 2 mps 662 mmHg 16%
    13:00 +28°C° 0 mm 2 mps 661 mmHg 13%
    14:00 +29°C° 0 mm 1 mps 661 mmHg 9%
    15:00 +29°C° 0 mm 1 mps 661 mmHg 9%
    16:00 +29°C° 0 mm 1 mps 661 mmHg 9%
    17:00 +29°C° 0 mm 1 mps 661 mmHg 8%
    18:00 +26°C° 0 mm 1 mps 661 mmHg 11%
    19:00 +23°C° 0 mm 2 mps 660 mmHg 14%
    20:00 +19°C° 0 mm 2 mps 660 mmHg 17%
    21:00 +18°C° 0 mm 3 mps 660 mmHg 20%
    22:00 +18°C° 0 mm 3 mps 661 mmHg 23%
    23:00 +17°C° 0 mm 4 mps 661 mmHg 26%

    24 August, Saturday

    Time Temperature Precipitation Wind Pressure Humidity
    00:00 +16°C° 0 mm 3 mps 661 mmHg 26%
    01:00 +14°C° 0 mm 3 mps 660 mmHg 25%
    02:00 +14°C° 0 mm 2 mps 660 mmHg 25%
    03:00 +13°C° 0 mm 2 mps 660 mmHg 25%
    04:00 +13°C° 0 mm 1 mps 660 mmHg 26%
    05:00 +12°C° 0 mm 1 mps 660 mmHg 26%
    06:00 +14°C° 0 mm 1 mps 661 mmHg 23%
    07:00 +15°C° 0 mm 1 mps 661 mmHg 20%
    08:00 +18°C° 0 mm 1 mps 662 mmHg 17%
    09:00 +20°C° 0 mm 1 mps 662 mmHg 16%
    10:00 +22°C° 0 mm 1 mps 663 mmHg 14%
    11:00 +25°C° 0 mm 1 mps 663 mmHg 13%
    12:00 +26°C° 0 mm 1 mps 662 mmHg 11%
    13:00 +27°C° 0 mm 1 mps 662 mmHg 10%
    14:00 +28°C° 0 mm 1 mps 661 mmHg 9%
    15:00 +28°C° 0 mm 1 mps 661 mmHg 9%
    16:00 +28°C° 0 mm 2 mps 661 mmHg 9%
    17:00 +27°C° 0 mm 2 mps 661 mmHg 9%
    18:00 +25°C° 0 mm 2 mps 660 mmHg 12%
    19:00 +22°C° 0 mm 1 mps 660 mmHg 15%
    20:00 +20°C° 0 mm 1 mps 660 mmHg 19%
    21:00 +18°C° 0 mm 2 mps 660 mmHg 19%
    22:00 +17°C° 0 mm 2 mps 660 mmHg 20%
    23:00 +16°C° 0 mm 2 mps 660 mmHg 21%
    Show more